Find OneWeb SL0020

NORAD ID: 45133 Int'l Des: 2020-008 Owner: ONEWEB Country: UK Constellation: oneweb operational
LEOCIRCULARPOLARONEWEB_TYPE

Live Position

Loading 3D Globe...

About OneWeb SL0020

Description loading...

Upcoming Passes

Passes for default location (London). Set your location on the main map for personalized predictions.

Altitude History

Loading altitude history...

Two-Line Element Set

1 45133U 20008C 26123.14799493 .00000539 00000-0 15078-2 0 9996
2 45133 87.8867 45.2265 0001910 78.3271 281.8071 13.10374301302448
Epoch: May 3, 2026 • Age: 7 hours

Current Status

Altitude 1249.1 km
Velocity 7.23 km/s
Sub-Earth Point -69.05°S, 145.41°W
Launch Date Feb 6, 2020
Age 6.2 years
Type internet

Technical Details

Classification Payload
Mass 148.00 kg
Dry Mass 140.00 kg
Total Mass 148.00 kg
Length 1.30 m
Diameter 1.00 m
Span 5.00 m
Shape Trapezoid+2 pan
Manufacturer ONEWUS
Bus Type ARROW
Phase Status In Orbit
Owner/State ONEWEB/UK

Most Searched